FW4637 Weather Reports


time (UTC)temp
C
wind
direction
speed
KPH
gust
KPH
rain 1hr
cm
rain 24hr
cm
rain mn
cm
humidity
%
barometer
mb
20260507015503 15 282 8.0 25.7 0.00 0.00 0.00 82 1017.8
20260507015003 15 289 8.0 20.9 0.00 0.00 0.00 82 1017.7
20260507014503 15 284 8.0 20.9 0.00 0.00 0.00 81 1017.8
20260507014003 15 279 6.4 22.5 0.00 0.00 0.00 81 1017.7
20260507013503 15 274 8.0 25.7 0.00 0.00 0.00 80 1017.8
20260507013215 16 273 6.4 25.7 0.00 0.00 0.00 81 1017.9
20260507012503 16 272 8.0 20.9 0.00 0.00 0.00 80 1017.6
20260507012217 16 269 9.7 20.9 0.00 0.00 0.00 80 1017.6
20260507011503 16 270 9.7 24.1 0.00 0.00 0.00 80 1017.7
20260507010503 16 273 8.0 24.1 0.00 0.00 0.00 80 1017.7
20260507010003 16 267 8.0 24.1 0.00 0.00 0.00 80 1017.8
20260507005503 16 266 8.0 22.5 0.00 0.00 0.00 79 1017.7
20260507005003 16 267 9.7 24.1 0.00 0.00 0.00 80 1017.7
20260507004503 16 261 8.0 24.1 0.00 0.00 0.00 79 1017.8
20260507004217 16 262 9.7 24.1 0.00 0.00 0.00 80 1017.7
20260507003503 16 267 8.0 20.9 0.00 0.00 0.00 79 1017.9
20260507003219 16 266 8.0 20.9 0.00 0.00 0.00 79 1017.9
20260507002503 16 268 9.7 24.1 0.00 0.00 0.00 79 1017.9
20260507002003 16 272 8.0 25.7 0.00 0.00 0.00 80 1018.0
20260507001503 16 269 9.7 25.7 0.00 0.00 0.00 79 1017.9
20260507001003 16 269 9.7 20.9 0.00 0.00 0.00 79 1017.9
20260507000503 16 273 9.7 20.9 0.00 0.00 0.00 79 1017.9
20260507000003 16 272 9.7 20.9 0.00 0.00 0.00 78 1017.9
20260506235503 16 266 9.7 25.7 0.00 0.00 0.00 79 1018.0
20260506235003 16 263 9.7 25.7 0.00 0.00 0.00 79 1018.0
20260506234503 16 265 9.7 22.5 0.00 0.00 0.00 78 1018.0
20260506234217 16 267 9.7 19.3 0.00 0.00 0.00 79 1018.1
20260506233503 16 269 11.3 32.2 0.00 0.00 0.00 79 1018.1
20260506233003 16 268 11.3 32.2 0.00 0.00 0.00 79 1018.2
20260506232715 16 267 11.3 25.7 0.00 0.00 0.00 79 1018.1
20260506232003 16 267 9.7 27.4 0.00 0.00 0.00 78 1018.1
20260506231718 16 266 11.3 27.4 0.00 0.00 0.00 79 1018.2
20260506231003 16 267 11.3 29.0 0.00 0.00 0.00 78 1018.3
20260506230503 17 270 11.3 29.0 0.00 0.00 0.00 77 1018.3
20260506230003 17 267 9.7 27.4 0.00 0.00 0.00 77 1018.1
20260506225503 17 271 8.0 19.3 0.00 0.00 0.00 77 1018.2
20260506225003 17 273 8.0 22.5 0.00 0.00 0.00 77 1018.3
20260506224503 17 269 8.0 22.5 0.00 0.00 0.00 77 1018.6
20260506224003 17 270 6.4 19.3 0.00 0.00 0.00 76 1018.7
20260506223503 17 272 8.0 22.5 0.00 0.00 0.00 77 1018.7
20260506223218 17 270 9.7 22.5 0.00 0.00 0.00 77 1018.8
20260506222503 17 265 9.7 20.9 0.00 0.00 0.00 76 1018.4
20260506222003 17 270 8.0 20.9 0.00 0.00 0.00 75 1018.8
20260506221717 18 275 8.0 20.9 0.00 0.00 0.00 75 1018.8
20260506221003 18 277 6.4 16.1 0.00 0.00 0.00 74 1019.0
20260506220719 18 276 6.4 22.5 0.00 0.00 0.00 74 1019.0
20260506220003 17 271 8.0 22.5 0.00 0.00 0.00 75 1019.1
20260506215503 17 270 8.0 19.3 0.00 0.00 0.00 75 1019.3
20260506215003 18 276 6.4 19.3 0.00 0.00 0.00 75 1019.2
20260506214503 18 276 6.4 17.7 0.00 0.00 0.00 74 1019.2
20260506214003 18 276 6.4 17.7 0.00 0.00 0.00 74 1019.3
20260506213503 18 271 6.4 17.7 0.00 0.00 0.00 74 1019.3
20260506213218 18 266 6.4 17.7 0.00 0.00 0.00 74 1019.2
20260506212503 18 262 6.4 17.7 0.00 0.00 0.00 74 1019.3
20260506212003 18 267 6.4 16.1 0.00 0.00 0.00 74 1019.4
20260506211503 18 273 6.4 16.1 0.00 0.00 0.00 74 1019.5
20260506211003 18 264 6.4 20.9 0.00 0.00 0.00 73 1019.4
20260506210503 18 261 6.4 20.9 0.00 0.00 0.00 73 1019.3
20260506210003 18 261 4.8 16.1 0.00 0.00 0.00 73 1019.5
20260506205503 18 261 4.8 16.1 0.00 0.00 0.00 73 1019.3
20260506205003 18 251 6.4 17.7 0.00 0.00 0.00 73 1019.6
20260506204503 18 256 6.4 17.7 0.00 0.00 0.00 72 1019.4
20260506204003 19 267 4.8 17.7 0.00 0.00 0.00 72 1019.2
20260506203716 19 265 6.4 16.1 0.00 0.00 0.00 73 1019.6
20260506203217 18 258 4.8 17.7 0.00 0.00 0.00 73 1019.5
20260506202503 19 261 4.8 17.7 0.00 0.00 0.00 72 1019.6
20260506202215 18 263 4.8 17.7 0.00 0.00 0.00 74 1019.5
20260506201503 18 268 6.4 14.5 0.00 0.00 0.00 73 1019.8
20260506201003 18 280 6.4 14.5 0.00 0.00 0.00 73 1019.8
20260506200503 19 283 4.8 14.5 0.00 0.00 0.00 72 1019.7
20260506200003 19 270 4.8 14.5 0.00 0.00 0.00 71 1019.6
20260506195503 19 265 6.4 14.5 0.00 0.00 0.00 71 1019.7
20260506195003 19 267 6.4 14.5 0.00 0.00 0.00 71 1019.7
20260506194718 19 267 4.8 14.5 0.00 0.00 0.00 70 1019.8
20260506194003 20 269 4.8 12.9 0.00 0.00 0.00 71 1019.7
20260506193503 19 275 4.8 12.9 0.00 0.00 0.00 71 1019.8
20260506193003 19 277 4.8 12.9 0.00 0.00 0.00 70 1019.9
20260506192503 20 299 3.2 11.3 0.00 0.00 0.00 69 1020.0
20260506192003 20 279 3.2 9.7 0.00 0.00 0.00 69 1020.1
20260506191503 19 259 3.2 12.9 0.00 0.00 0.00 70 1020.1
20260506191003 20 257 3.2 12.9 0.00 0.00 0.00 69 1020.2
20260506190503 19 248 3.2 12.9 0.00 0.00 0.00 71 1020.4
20260506190003 19 260 3.2 12.9 0.00 0.00 0.00 71 1020.3
20260506185503 18 278 3.2 11.3 0.00 0.00 0.00 71 1020.3
20260506185003 19 297 3.2 9.7 0.00 0.00 0.00 71 1020.3
20260506184503 18 299 3.2 9.7 0.00 0.00 0.00 71 1020.4
20260506184003 18 271 3.2 8.0 0.00 0.00 0.00 72 1020.2
20260506183716 18 255 1.6 8.0 0.00 0.00 0.00 72 1020.4
20260506183003 18 303 3.2 8.0 0.00 0.00 0.00 73 1020.3
20260506182503 18 318 3.2 8.0 0.00 0.00 0.00 72 1020.4
20260506182003 18 301 3.2 8.0 0.00 0.00 0.00 71 1020.3
20260506181503 18 80 4.8 12.9 0.00 0.00 0.00 71 1020.3
20260506181003 18 19 4.8 12.9 0.00 0.00 0.00 72 1020.3
20260506180503 18 323 4.8 11.3 0.00 0.00 0.00 71 1020.3
20260506180004 19 210 3.2 11.3 0.00 0.00 0.00 70 1020.2
20260506175503 18 37 0.0 4.8 0.00 0.00 0.00 71 1020.2
20260506175003 18 34 1.6 6.4 0.00 0.00 0.00 72 1020.2
20260506174503 18 37 1.6 6.4 0.00 0.00 0.00 73 1020.2
20260506174003 17 19 1.6 4.8 0.00 0.00 0.00 73 1020.2
20260506173503 17 19 1.6 4.8 0.00 0.00 0.00 74 1020.1
20260506173003 17 21 1.6 4.8 0.00 0.00 0.00 74 1020.2
20260506172503 17 11 1.6 4.8 0.00 0.00 0.00 75 1020.4
20260506172003 17 353 1.6 6.4 0.00 0.00 0.00 75 1020.4
20260506171503 17 335 1.6 6.4 0.00 0.00 0.00 75 1020.4
20260506171003 17 96 0.0 3.2 0.00 0.00 0.00 76 1020.5
20260506170503 16 62 1.6 4.8 0.00 0.00 0.00 77 1020.6
20260506170003 16 36 1.6 4.8 0.00 0.00 0.00 76 1020.5
20260506165503 16 21 0.0 4.8 0.00 0.00 0.00 76 1020.4
20260506165003 16 24 0.0 3.2 0.00 0.00 0.00 77 1020.5
20260506164503 16 12 0.0 4.8 0.00 0.00 0.00 76 1020.5
20260506164003 16 54 0.0 4.8 0.00 0.00 0.00 77 1020.5
20260506163503 16 83 1.6 4.8 0.00 0.00 0.00 77 1020.5
20260506163003 16 69 1.6 3.2 0.00 0.00 0.00 78 1020.5
20260506162503 16 54 1.6 4.8 0.00 0.00 0.00 78 1020.5
20260506162003 16 61 0.0 4.8 0.00 0.00 0.00 77 1020.6
20260506161503 16 82 0.0 4.8 0.00 0.00 0.00 78 1020.5
20260506161216 15 81 0.0 3.2 0.00 0.00 0.00 78 1020.7
20260506160717 15 79 0.0 3.2 0.00 0.00 0.00 79 1020.5
20260506160003 15 29 1.6 4.8 0.00 0.00 0.00 79 1020.5
20260506155503 15 15 1.6 4.8 0.00 0.00 0.00 79 1020.5
20260506155003 15 360 1.6 6.4 0.00 0.00 0.00 79 1020.5
20260506154503 15 21 1.6 6.4 0.00 0.00 0.00 78 1020.5
20260506154003 15 33 1.6 6.4 0.00 0.00 0.00 78 1020.6
20260506153503 15 21 1.6 6.4 0.00 0.00 0.00 78 1020.4
20260506153003 15 17 1.6 6.4 0.00 0.00 0.00 78 1020.5
20260506152503 15 348 1.6 6.4 0.00 0.00 0.00 80 1020.4
20260506152003 15 315 0.0 6.4 0.00 0.00 0.00 79 1020.4
20260506151503 15 358 1.6 6.4 0.00 0.00 0.00 80 1020.4
20260506151003 15 347 1.6 6.4 0.00 0.00 0.00 79 1020.3
20260506150503 15 331 0.0 4.8 0.00 0.03 0.00 78 1020.3
20260506150003 15 347 0.0 3.2 0.00 0.03 0.00 80 1020.3
20260506145503 15 341 0.0 3.2 0.00 0.03 0.00 81 1020.3
20260506145003 15 268 0.0 3.2 0.00 0.03 0.00 82 1020.3
20260506144503 15 289 0.0 3.2 0.00 0.03 0.00 82 1020.3
20260506144003 15 329 0.0 4.8 0.00 0.03 0.00 82 1020.2
20260506143718 15 326 0.0 4.8 0.00 0.03 0.00 82 1020.4
20260506143219 15 274 0.0 4.8 0.00 0.03 0.00 82 1020.3
20260506142716 15 229 1.6 4.8 0.00 0.03 0.00 83 1020.3
20260506142003 14 256 0.0 4.8 0.00 0.03 0.00 83 1020.2
20260506141503 14 267 0.0 4.8 0.00 0.03 0.00 83 1020.1
20260506141003 14 268 0.0 3.2 0.00 0.03 0.00 83 1020.0
20260506140716 14 266 0.0 3.2 0.00 0.03 0.00 83 1020.0
20260506140003 14 265 0.0 3.2 0.00 0.03 0.00 84 1019.9
20260506135503 13 265 0.0 3.2 0.00 0.03 0.00 84 1019.8
20260506135003 13 271 0.0 1.6 0.00 0.03 0.00 85 1019.8
20260506134503 13 271 0.0 1.6 0.00 0.03 0.00 85 1019.7
20260506134003 13 270 0.0 1.6 0.00 0.03 0.00 85 1019.7
20260506133503 13 270 0.0 3.2 0.00 0.03 0.00 85 1019.7
20260506133003 13 270 0.0 3.2 0.00 0.03 0.00 85 1019.7
20260506132716 13 267 0.0 3.2 0.00 0.03 0.00 85 1019.7
20260506132003 13 255 1.6 3.2 0.00 0.03 0.00 85 1019.6
20260506131503 13 270 1.6 3.2 0.00 0.03 0.00 85 1019.5
20260506131003 13 278 0.0 3.2 0.00 0.03 0.00 85 1019.5
20260506130503 13 340 0.0 3.2 0.00 0.03 0.00 85 1019.5
20260506130003 13 305 0.0 3.2 0.00 0.03 0.00 85 1019.4
20260506125503 13 256 0.0 3.2 0.00 0.03 0.00 85 1019.5
20260506125003 13 355 1.6 6.4 0.00 0.03 0.00 86 1019.3
20260506124503 13 357 1.6 6.4 0.00 0.03 0.00 85 1019.4
20260506124003 13 3 1.6 4.8 0.00 0.03 0.00 85 1019.4
20260506123503 13 2 1.6 6.4 0.00 0.03 0.00 85 1019.4
20260506123003 13 358 1.6 6.4 0.00 0.03 0.00 85 1019.3
20260506122503 13 351 1.6 6.4 0.00 0.03 0.00 85 1019.3
20260506122003 13 328 0.0 4.8 0.00 0.03 0.00 84 1019.2
20260506121717 13 322 0.0 4.8 0.00 0.03 0.00 84 1019.2
20260506121219 13 334 1.6 4.8 0.00 0.03 0.00 84 1019.2
20260506120503 13 302 1.6 4.8 0.00 0.03 0.00 84 1019.2
20260506120003 13 292 0.0 3.2 0.00 0.03 0.00 84 1019.1
20260506115503 13 274 0.0 3.2 0.00 0.03 0.00 84 1019.2
20260506115003 13 267 0.0 4.8 0.00 0.03 0.00 84 1019.1
20260506114503 13 265 0.0 4.8 0.00 0.03 0.00 84 1019.1
20260506114003 13 262 0.0 4.8 0.00 0.03 0.00 84 1019.0
20260506113717 13 261 0.0 4.8 0.00 0.03 0.00 84 1019.1
20260506113003 13 300 0.0 3.2 0.00 0.03 0.00 83 1019.0
20260506112503 13 318 0.0 4.8 0.00 0.03 0.00 83 1019.0
20260506112003 13 304 0.0 4.8 0.00 0.03 0.00 83 1018.9
20260506111503 13 272 0.0 4.8 0.00 0.03 0.00 84 1018.9
20260506111218 13 272 0.0 4.8 0.00 0.03 0.00 84 1018.9
20260506110503 13 261 0.0 1.6 0.00 0.03 0.00 84 1018.8
20260506110003 13 272 0.0 3.2 0.00 0.03 0.00 85 1018.8
20260506105503 13 304 1.6 6.4 0.00 0.03 0.00 85 1018.8
20260506105218 13 312 1.6 6.4 0.00 0.03 0.00 85 1018.8
20260506104503 13 309 0.0 3.2 0.00 0.03 0.00 86 1018.8
20260506104003 13 269 1.6 6.4 0.00 0.03 0.00 86 1018.8
20260506103503 13 263 1.6 6.4 0.00 0.03 0.00 86 1018.8
20260506103003 13 256 0.0 3.2 0.00 0.03 0.00 87 1018.7
20260506102503 13 285 0.0 3.2 0.00 0.03 0.00 87 1018.7
20260506102003 13 342 0.0 3.2 0.00 0.03 0.00 87 1018.7
20260506101503 13 283 0.0 1.6 0.00 0.03 0.00 86 1018.6
20260506101218 13 266 0.0 1.6 0.00 0.03 0.00 86 1018.6
20260506100503 13 264 0.0 1.6 0.00 0.03 0.00 86 1018.6
20260506100003 12 269 0.0 3.2 0.00 0.03 0.00 86 1018.7
20260506095503 12 276 0.0 3.2 0.00 0.03 0.00 86 1018.7
20260506095218 12 321 0.0 1.6 0.00 0.03 0.00 86 1018.7
20260506094503 13 329 0.0 8.0 0.00 0.03 0.00 86 1018.8
20260506094003 13 329 0.0 8.0 0.00 0.03 0.00 86 1018.8
20260506093503 13 329 0.0 3.2 0.00 0.03 0.00 86 1018.8
20260506093003 13 299 0.0 3.2 0.00 0.03 0.00 85 1018.8
20260506092503 13 277 0.0 1.6 0.00 0.05 0.00 85 1018.7
20260506092003 13 273 0.0 1.6 0.00 0.05 0.00 85 1018.6
20260506091716 13 262 0.0 3.2 0.00 0.05 0.00 85 1018.6
20260506091003 13 259 0.0 3.2 0.00 0.05 0.00 84 1018.5
20260506090503 13 262 0.0 3.2 0.00 0.08 0.00 84 1018.7
20260506090003 13 269 0.0 1.6 0.00 0.08 0.00 84 1018.6
20260506085503 13 269 0.0 1.6 0.00 0.08 0.00 84 1018.7
20260506085003 13 269 0.0 1.6 0.00 0.08 0.00 83 1018.6
20260506084503 13 299 0.0 3.2 0.00 0.08 0.00 83 1018.7
20260506084003 13 299 0.0 3.2 0.00 0.08 0.00 83 1018.7
20260506083503 13 263 0.0 6.4 0.00 0.08 0.00 84 1018.7
20260506083003 13 268 0.0 6.4 0.00 0.08 0.00 84 1018.7
20260506082503 13 290 0.0 3.2 0.00 0.08 0.00 84 1018.7
20260506082003 13 305 0.0 3.2 0.00 0.08 0.00 84 1018.7
20260506081503 13 264 0.0 3.2 0.00 0.10 0.00 84 1018.7
20260506081003 13 259 0.0 3.2 0.00 0.10 0.00 84 1018.7
20260506080503 13 246 0.0 3.2 0.00 0.13 0.00 84 1018.8
20260506073503 13 269 0.0 4.8 0.00 0.20 0.00 85 1018.4
20260506073003 13 274 0.0 3.2 0.00 0.20 0.00 85 1018.4
20260506072717 13 278 0.0 3.2 0.00 0.20 0.00 85 1018.4
20260506072003 13 260 0.0 3.2 0.00 0.20 0.00 86 1018.4
20260506071715 13 261 1.6 4.8 0.00 0.23 0.00 86 1018.3
20260506071003 13 270 0.0 4.8 0.00 0.23 0.00 87 1018.2
20260506070718 13 278 0.0 3.2 0.00 0.23 0.00 87 1018.3
20260506070219 13 276 1.6 4.8 0.00 0.23 0.00 87 1018.3
20260506062503 13 251 0.0 3.2 0.00 0.23 0.23 86 1017.8
20260506062218 13 271 0.0 3.2 0.00 0.23 0.23 86 1017.8
20260506061503 13 273 0.0 3.2 0.00 0.25 0.23 86 1017.7
20260506061216 13 273 0.0 3.2 0.00 0.25 0.23 86 1017.7
20260506060503 13 267 0.0 3.2 0.00 0.25 0.23 86 1017.6
20260506051216 13 269 3.2 8.0 0.00 0.33 0.23 87 1017.4
20260506050503 13 269 1.6 8.0 0.00 0.33 0.23 87 1017.5
20260506050218 13 266 1.6 6.4 0.00 0.33 0.23 87 1017.5
20260506045003 13 265 1.6 8.0 0.00 0.36 0.23 88 1017.2
20260506044716 13 265 1.6 6.4 0.00 0.36 0.23 88 1017.3
20260506044218 13 262 0.0 3.2 0.00 0.38 0.23 88 1017.2
20260506043503 13 288 1.6 8.0 0.00 0.38 0.23 88 1017.2
20260506043003 13 269 0.0 8.0 0.00 0.38 0.23 87 1017.2
20260506042503 13 262 0.0 6.4 0.00 0.38 0.23 87 1017.2
20260506042003 13 259 1.6 6.4 0.00 0.38 0.23 87 1017.1
20260506041718 13 259 1.6 6.4 0.00 0.38 0.23 87 1017.2
20260506041003 13 249 1.6 6.4 0.00 0.38 0.23 87 1017.0
20260506040503 13 233 1.6 4.8 0.00 0.38 0.23 87 1016.9
20260506040003 13 263 1.6 8.0 0.00 0.38 0.23 86 1016.8
20260506035503 13 266 3.2 9.7 0.00 0.38 0.23 86 1016.7
20260506035219 13 265 3.2 9.7 0.00 0.38 0.23 86 1016.7
20260506034503 13 253 1.6 8.0 0.00 0.38 0.23 85 1016.6
20260506034003 13 272 1.6 8.0 0.00 0.38 0.23 85 1016.6
20260506033503 13 281 1.6 8.0 0.00 0.38 0.23 85 1016.4
20260506033003 13 274 1.6 9.7 0.00 0.38 0.23 85 1016.4
20260506032503 13 273 3.2 11.3 0.00 0.38 0.23 85 1016.4
20260506032003 14 267 3.2 11.3 0.00 0.38 0.23 84 1016.3
20260506031718 14 263 3.2 11.3 0.00 0.38 0.23 84 1016.3
20260506031219 14 258 3.2 9.7 0.00 0.38 0.23 84 1016.3
20260506030503 14 265 3.2 9.7 0.00 0.38 0.23 83 1016.1
20260506030217 14 263 3.2 12.9 0.00 0.38 0.23 83 1016.1
20260506025503 14 262 3.2 12.9 0.00 0.38 0.23 83 1016.0
20260506025003 14 272 3.2 11.3 0.00 0.38 0.23 83 1016.0
20260506024503 14 270 4.8 12.9 0.00 0.38 0.23 83 1016.0
20260506024003 14 267 3.2 12.9 0.00 0.38 0.23 83 1016.1
20260506023503 14 271 3.2 11.3 0.00 0.38 0.23 83 1016.0
20260506023003 14 269 4.8 14.5 0.00 0.38 0.23 82 1015.9
20260506022503 15 259 3.2 14.5 0.00 0.38 0.23 81 1015.8
20260506022217 15 267 3.2 9.7 0.00 0.38 0.23 81 1015.8
20260506021503 15 260 3.2 12.9 0.00 0.38 0.23 81 1015.5
20260506021003 15 259 3.2 12.9 0.00 0.38 0.23 81 1015.4
20260506020503 15 270 3.2 16.1 0.00 0.38 0.23 80 1015.5
20260506020003 15 272 4.8 17.7 0.00 0.38 0.23 79 1015.5